Starlink 31990

operational
NORAD ID: 60024 Int'l Des: 2024-111 Owner: SPXS Country: US Constellation: starlink
LEOCIRCULAR

About Starlink 31990

Description loading...

Live Position

Loading 3D Globe...

Upcoming Passes

Altitude History

Altitude vs Time

uPlot chart will show altitude changes over time

Two-Line Element Set

1 60024U 24111J 26035.70358548 -.00000405 00000-0 -15364-5 0 9992
2 60024 53.1581 228.8092 0001217 87.0491 273.0649 15.30192604 93989
Epoch: Feb 4, 2026 • Age: 18 hours

Current Status

Altitude 491.3 km
Velocity 7.62 km/s
Sub-Earth Point -45.14°S, 150.4°E
Launch Date Jun 8, 2024
Age 1.6 years
Type internet

Technical Details

Classification Payload
Mass 730.00 kg
Dry Mass 700.00 kg
Total Mass 730.00 kg
Length 0.30 m
Diameter 4.10 m
Span 29.00 m
Shape Box + pan
Manufacturer SPXS
Bus Type Starlink V2M
Phase Status In Orbit
Owner/State SPXS/US

Large Constellations

Loading constellations...